Find Starlink 4067

NORAD ID: 52668 Int'l Des: 2022-053 Owner: SPXS Country: US Constellation: starlink operational
LEOCIRCULAR

リアルタイム位置

3D地球を読み込み中...

Starlink 4067について

説明を読み込み中...

次回通過

Passes for default location (London). Set your location on the main map for personalized predictions.

高度履歴

Loading altitude history...

軌道要素

1 52668U 22053N 26122.45241076 -.00000498 00000-0 -13182-4 0 9993
2 52668 53.2192 272.7727 0001702 91.0625 269.0562 15.08831384219168
Epoch: May 2, 2026 • Age: 5 hours

現在のステータス

高度 542.5 km
速度 7.60 km/s
衛星直下点 40.43°N, 50.86°W
打ち上げ日 May 18, 2022
運用期間 3.9 years
タイプ internet

技術仕様

分類 Payload
質量 297.00 kg
乾燥質量 275.00 kg
総質量 297.00 kg
長さ 0.20 m
直径 2.80 m
スパン 9.00 m
形状 Box + pan
製造者 SPXS
バスタイプ Starlink
フェーズステータス In Orbit
所有者/国 SPXS/US

Most Searched